FENGYUN 1C DEB

Satellite information

Favourite Embed

Satellite Type and Status

DEBRISIN ORBIT

Key statistics

Satellite FENGYUN 1C DEB at a glance.

Uptime

9715

Days in orbit

Revolutions

≈ 14.2

Per day

Orbit

SSO

Sun Synchronous Orbit

Inclination

98.6

Latest

Satellite identification and parameters

Extended collection of information and parameters for FENGYUN 1C DEB.

Object identification

Identified? True

Debris? True

Object name: FENGYUN 1C DEB

International designator: 1999-025CSC

Object number (NORAD): 32134

Object ID (CCSDS): 32134

Country: PEOPLES REPUBLIC OF CHINA (PRC)

Current information (Y/N): Y

RCS size: SMALL

Orbital parameters

Period: 101.297 minutes

Inclination: 98.5953 deg

SMA: 7198.23 km

Apoapsis: 1006.512 km

Periapsis: 633.677 km

RAAN: 350.0151 deg

Eccentricy: 0.02589769

Argument of periapsis: 263.3717 deg

Mean anomaly: 223.0495 deg

Mean motion: 14.21556709 rev/day

Mean motion (dot): 0.00003046 rev/day2

B* drag term: 0.0010048423 1/REarth

Two-line elements (TLE)

Creation date: Dec. 13, 2025, 4:32 a.m.

Reference frame: TEME

Reference center: EARTH

Epoch: Dec. 12, 2025, 7:46 p.m. UTC

TLE line 0: 0 FENGYUN 1C DEB

TLE line 1: 1 32134U 99025CSC 25346.82376480 .00003046 00000-0 10048-2 0 9994

TLE line 2: 2 32134 98.5953 350.0151 0258977 263.3717 223.0495 14.21556709951488

Live tracking on map

Real-time ground track for satellite FENGYUN 1C DEB.

In-orbit conjunctions

A list of the most updated potential collisions computed for object FENGYUN 1C DEB.

Target Orbit TCA Probability of collision Miss distance Type
COSMOS 2251 DEB LEO 2024-11-12 16:22:00 0.0005385867 126.0 (m) DEBRIS
METEOR 2-8 DEB LEO 2024-08-01 15:44:50 0.0003724079 49.0 (m) DEBRIS
SL-12 R/B(2) LEO 2024-06-19 02:16:38 0.000101872 94.0 (m) ROCKET BODY

Associated space launch

Chinese polar orbiting meteorological satellite

FENGYUN 1C DEB was lifted into orbit during the mission ‘Long March 4B | Feng Yun 1C’, on board a Long March 4B space rocket.

The launch took place on May 10, 1999, 1:33 a.m. from Launch Complex 7.

For more information about the launch, click the button.

Launch to space Long March 4B | Feng Yun 1C
Long March 4B | Feng Yun 1C

Agency: N/A

Status: Launch Successful

Launch date: May 10, 1999, 1:33 a.m. UTC

Rocket: Long March 4B

Launch pad: Launch Complex 7

Location: Taiyuan Satellite Launch Center, People's Republic of China

...

Latest news about this satellite

There are no fresh news available about this satellite. Check back as we update our databases every day.


Newsletter sign-up

Weekly statistics, charts and insights to help you stay on top of the space industry.